Regional Weather Roundup
Issued by NWS

Home | Current Version | Previous Version | Text Only | Print | Product List | Glossary Off
Versions: 1 2 3 4 5 6 7 8 9 10 11 12 13 14 15 16 17 18 19 20 21 22 23 24 25 26 27 28 29 30 31 32 33 34 35 36 37 38 39 40 41 42 43 44 45 46 47 48 49 50

000
ASUS43 KMKX 020611
RWRWI

WISCONSIN REGIONAL WEATHER ROUNDUP
NATIONAL WEATHER SERVICE MILWAUKEE/SULLIVAN WI
100 AM CDT SUN AUG 02 2015

NOTE: "FAIR" INDICATES FEW OR NO CLOUDS BELOW 12,000 FEET WITH NO
SIGNIFICANT WEATHER AND/OR OBSTRUCTIONS TO VISIBILITY.

WIZ001-002-006>008-014>016-023>028-020700-
NORTHWEST WISCONSIN

CITY           SKY/WX    TMP DP  RH WIND       PRES   REMARKS
SUPERIOR ARPT  CLEAR     61  58  91 SW5       29.67F
6HR MIN TEMP:  59; 6HR MAX TEMP:  78;

ASHLAND        CLEAR     62  57  83 SW7       29.70F
6HR MIN TEMP:  59; 6HR MAX TEMP:  78;

HAYWARD        PTCLDY    67  59  75 SW5       29.74F
6HR MIN TEMP:  64; 6HR MAX TEMP:  78;

SIREN          CLEAR     68  63  84 S5        29.73F
6HR MIN TEMP:  68; 6HR MAX TEMP:  79;

CUMBERLAND     PTCLDY    64  63  94 SW7       29.76F
RICE LAKE      PTCLDY    68  62  82 SE6       29.77F
6HR MIN TEMP:  65; 6HR MAX TEMP:  77;

CHETEK         PTCLDY    65  63  93 CALM      29.77S
6HR MIN TEMP:  65; 6HR MAX TEMP:  78;

LADYSMITH      MOCLDY    69  62  77 S3        29.79F
6HR MIN TEMP:  65; 6HR MAX TEMP:  78;

EAU CLAIRE     PTCLDY    69  66  90 S7        29.77F
6HR MIN TEMP:  66; 6HR MAX TEMP:  81; 6HR PCP:  0.01;

MENOMONIE      LGT RAIN  73  67  82 S9        29.77F
NEW RICHMOND   PTCLDY    72  66  83 SW9       29.76F
6HR MIN TEMP:  68; 6HR MAX TEMP:  81;

OSCEOLA        PTCLDY    69  69 100 CALM      29.77F
6HR MIN TEMP:  68; 6HR MAX TEMP:  80;

$$

WIZ003>005-009-010-017-018-020700-
NORTH CENTRAL WISCONSIN

CITY           SKY/WX    TMP DP  RH WIND       PRES   REMARKS
MANITOWISH WTR CLEAR     59  57  92 CALM      29.77F
6HR MIN TEMP:  55; 6HR MAX TEMP:  75;

ARBOR VITAE    PTCLDY    62  56  82 CALM      29.77F
6HR MIN TEMP:  59; 6HR MAX TEMP:  77;

WOODRUFF       PTCLDY    62  56  82 CALM      29.77F
6HR MIN TEMP:  59; 6HR MAX TEMP:  77;

RHINELANDER    PTCLDY    64  56  75 SW5       29.79F
6HR MIN TEMP:  60; 6HR MAX TEMP:  76;

EAGLE RIVER    PTCLDY    60  53  76 CALM      29.78F
6HR MIN TEMP:  60; 6HR MAX TEMP:  75;

LAND O LAKES   CLEAR     54  53  97 CALM      29.79F
6HR MIN TEMP:  53; 6HR MAX TEMP:  75;

PHILLIPS       CLEAR     65  59  81 S5        29.77F
6HR MIN TEMP:  64; 6HR MAX TEMP:  75;

TOMAHAWK       PTCLDY    64  57  80 CALM      29.79F
6HR MIN TEMP:  57; 6HR MAX TEMP:  75;

MEDFORD        CLOUDY    68  62  80 S10       29.80F THUNDER
6HR MIN TEMP:  60; 6HR MAX TEMP:  75;

MERRILL        NOT AVBL
$$

WIZ029-030-035-036-043>047-020700-
CENTRAL WISCONSIN

CITY           SKY/WX    TMP DP  RH WIND       PRES   REMARKS
WAUSAU         PTCLDY    68  59  73 SW6       29.79F
6HR MIN TEMP:  67; 6HR MAX TEMP:  79;

MOSINEE        PTCLDY    63  61  94 S6        29.82F
MARSHFIELD     LGT RAIN  65  59  81 SW3       29.81F
6HR MIN TEMP:  63; 6HR MAX TEMP:  78; 6HR PCP: TRACE;

STEVENS POINT  CLEAR     65  58  77 CALM      29.81F
6HR MIN TEMP:  62; 6HR MAX TEMP:  78;

WAUPACA        PTCLDY    64  59  83 S3        29.81F
6HR MIN TEMP:  64; 6HR MAX TEMP:  82;

WAUTOMA        PTCLDY    62  59  90 CALM      29.83F
6HR MIN TEMP:  62; 6HR MAX TEMP:  84;

WISC RAPIDS    CLEAR     67  60  78 SW6       29.81F
6HR MIN TEMP:  64; 6HR MAX TEMP:  80; 6HR PCP: TRACE;

CAMP DOUGLAS   MOCLDY    66  66 100 S7        29.80F
6HR MIN TEMP:  64; 6HR MAX TEMP:  79;

$$

WIZ011>013-019>022-031-037>040-048>050-020700-
NORTHEAST WISCONSIN

CITY           SKY/WX    TMP DP  RH WIND       PRES   REMARKS
ANTIGO         PTCLDY    63  57  82 SW5       29.81F
SHAWANO        CLEAR     66  56  70 CALM      29.79F
6HR MIN TEMP:  66; 6HR MAX TEMP:  80;

OCONTO         CLEAR     57  55  94 CALM      29.78F
6HR MIN TEMP:  57; 6HR MAX TEMP:  80;

STURGEON BAY   CLEAR     64  52  63 SW7       29.81F
6HR MIN TEMP:  64; 6HR MAX TEMP:  79;

GREEN BAY      CLEAR     66  56  70 SW5       29.80F
6HR MIN TEMP:  62; 6HR MAX TEMP:  79;

MANITOWOC      CLEAR     61  56  83 MISG      29.82S
6HR MIN TEMP:  61; 6HR MAX TEMP:  81;

APPLETON       PTCLDY    68  55  64 SW10      29.81F
CLINTONVILLE   PTCLDY    63  54  72 CALM      29.79F
OSHKOSH        PTCLDY    71  58  63 SW3       29.82S
6HR MIN TEMP:  63; 6HR MAX TEMP:  81;

$$

WIZ032>034-041-042-053>061-020700-
SOUTHWEST WISCONSIN

CITY           SKY/WX    TMP DP  RH WIND       PRES   REMARKS
LA CROSSE      PTCLDY    76  68  76 S12       29.79F
6HR MIN TEMP:  76; 6HR MAX TEMP:  85;

SPARTA         PTCLDY    73  64  73 SW3       29.81F
6HR MIN TEMP:  64; 6HR MAX TEMP:  82;

VIROQUA        PTCLDY    72  69  90 SW9       29.85F
6HR MIN TEMP:  70; 6HR MAX TEMP:  80;

BOSCOBEL       PTCLDY    72  68  87 SW3       29.85F
6HR MIN TEMP:  67; 6HR MAX TEMP:  86;

PRAIRIE DU CHI PTCLDY    73  67  79 CALM      29.85F
6HR MIN TEMP:  73; 6HR MAX TEMP:  85;

PLATTEVILLE    CLEAR     70  69  95 SW8       29.88F
6HR MIN TEMP:  70; 6HR MAX TEMP:  83;

$$

WIZ056-057-062-063-064-067-068-020700-
SOUTH CENTRAL WISCONSIN

CITY           SKY/WX    TMP DP  RH WIND       PRES   REMARKS
REEDSBURG      MOCLDY    74  67  79 SW7       29.84F
6HR MIN TEMP:  70; 6HR MAX TEMP:  82;

BARABOO/DELLS  MOCLDY    73  64  72 SW7       29.84F
6HR MIN TEMP:  67; 6HR MAX TEMP:  82;

LONE ROCK      MOCLDY    68  64  87 CALM      29.85F
6HR MIN TEMP:  66; 6HR MAX TEMP:  84;

MINERAL POINT  PTCLDY    73  68  83 SW7       29.88F
MADISON        PTCLDY    75  67  76 VRB6      29.85F
6HR MIN TEMP:  70; 6HR MAX TEMP:  83;

MIDDLETON      PTCLDY    74  67  78 SW9       29.86F
6HR MIN TEMP:  66; 6HR MAX TEMP:  83;

WATERTOWN      MOCLDY    68  68  99 SW3       29.85F
6HR MIN TEMP:  63; 6HR MAX TEMP:  81;

MONROE         PTCLDY    72  66  83 SW13      29.88F
JANESVILLE     PTCLDY    72  68  88 SW6       29.88S
$$

WIZ051-052-058>065-066-070>072-020700-
SOUTHEAST WISCONSIN

CITY           SKY/WX    TMP DP  RH WIND       PRES   REMARKS
MILWAUKEE      MOCLDY    73  64  73 SW12      29.86R
6HR MIN TEMP:  69; 6HR MAX TEMP:  83;

WAUKESHA       PTCLDY    70  63  78 SW6       29.87S
MILWAUKEE/TIMM CLEAR     68  59  73 SW7       29.86S
RACINE         CLEAR     72  65  78 SW7       29.87S
6HR MIN TEMP:  69; 6HR MAX TEMP:  77;

BURLINGTON     CLEAR     64  63  97 CALM      29.87S
6HR MIN TEMP:  62; 6HR MAX TEMP:  81;

KENOSHA        CLEAR     69  65  86 W8        29.87S
6HR MIN TEMP:  66; 6HR MAX TEMP:  79;

FOND DU LAC    PTCLDY    67  60  78 SW5       29.83F
6HR MIN TEMP:  67; 6HR MAX TEMP:  82;

SHEBOYGAN      CLEAR     61  58  90 SW5       29.82F
6HR MIN TEMP:  61; 6HR MAX TEMP:  80; 6HR PCP: TRACE;

WEST BEND      PTCLDY    63  59  88 CALM      29.84F
JUNEAU         MOCLDY    65  60  84 SW3       29.86F
6HR MIN TEMP:  65; 6HR MAX TEMP:  79;

$$

LSZ147-162-020700-
LAKE SUPERIOR

STATION/POSITION TIME  TEMP    WIND        PRES    WAVE
                       AIR SEA DIR/SP/G            HT/PER
                 (UTC) (F)     (DEG/KT/KT) (MB)    (FT/S)
W MID LAKE BUOY  0550   62 56  210/ 14/ 14 1004.1F   1/ 3
DEVILS ISLAND    0600   67     230/  9/ 11 1004.3F
PORT WING        0500   68     200/  1/  5 1006.1
SAXON HARBOR     0540   67                 1005.4F
$$

LMZ867-665-643>646-020700-
LAKE MICHIGAN

STATION/POSITION TIME  TEMP    WIND        PRES    WAVE
                       AIR SEA DIR/SP/G            HT/PER
                 (UTC) (F)     (DEG/KT/KT) (MB)    (FT/S)
CHAMBERS ISLAND  0500   71     200/  5/  8 1008.5S



USA.gov is the U.S. government's official web portal to all federal, state and local government web resources and services.